sat.trackr.live / text

‹ back to catalog

GLOBALSTAR M091

NORAD 37741 · 2011-033C

PAYLOAD ACTIVE UNKNOWN

§ Identity

Operator
Country
GLOB
Launch date
2011-07-13
Launch site
TYMSC
Launch vehicle
Mass (kg)
RCS (m²)
4.93

Purposes: comms

External: N2YO · Heavens-Above · Gunter

§ Orbital elements

Epoch: 2026-05-25T04:24:49.773024Z

Period
114.08 min
Inclination
52.0007°
Eccentricity
0.0000705
Mean motion
12.62263329 rev/d
Perigee alt
1,413.1 km
Apogee alt
1,414.2 km
Semi-major
7,791.8 km
B*
1.0184e-4
RAAN
311.9461°
Arg perigee
113.4452°
Mean anomaly
57.6368°
Rev number
68,637

§ Raw data

GLOBALSTAR M0911 37741U 11033C   26145.18390941 -.00000086  00000+0  10184-3 0  99942 37741  52.0007 311.9461 0000705 113.4452  57.6368 12.62263329686376

JSON: /api/v1/satellites/37741 · /tle

For live sub-satellite position, see the globe view (requires WebGL).

§ Visibility from observer

Set your observer location to see the next 7 days of passes ≥ 10°. The values pass through the URL so the page stays shareable.

No JS? Fill the form by hand. The geolocation button needs JavaScript.